Terug naar catalogus

STARLINK-31776

ActiefCommunicatieVLEO
NORAD 59603·PAYLOAD·🇺🇸 United States

Gelanceerd Apr 28, 2024 vanaf Cape Canaveral Space Force Station

Loading…

Volgende Passages (komende 24 uur)

TLE

VersSource: CelesTrak SupGP

Epoch: Sep 15, 2026, 02:50 UTC

1 59603C 24080C   26258.11854167 -.00032588  00000+0 -11801-2 0  2581
2 59603  43.0036  51.8359 0001490 269.6050 329.7476 15.27600159    19

Volg STARLINK-31776 in realtime met AllMySat

Download on the App Store